Погода в Щербакуле

Погода в Щербакуле : погода сейчас, прогноз погоды и архив. Всё, что Вы хотите узнать о погоде в Щербакуле!

Хотите узнать прогноз погоды в Щербакуле? Тогда Вам сюда: Погода в Щербакуле

Поиск расширенной информации на нашем сайте:

Другие новости

Новости СМИ2

Главная страница сайта

Новости сайта

03.07.2017

Напоминаем, что на нашем специализированном сайте Метеоцентр.Азия вы можете получить высокодетализированные автоматические прогнозы погоды по пунктам России, СНГ и мира в авиационном формате (включающие направление и скорость ветра, видимость, явления погоды, количество и форму облачности, нижнюю и верхнюю границу облачности).


Погода в Щербакуле - сегодня

Время (UTC), дата Ветер
(°,м/с) 
Видим.   Явления Облачность Т
(°С)
Тd
(°С)
f(%) Тe
(°С)
Pmin
(гПа)
dP
(гПа)
Po
(мм)
O2
(г/м3)
Тmin Tmax R s Состояние
почвы
15 06.11.18 270 (З) 4000 м  слаб. снег [диам. отлож. мокр. снега 3 мм]  10/10 300 м 
[Ns]
-5.9 -7.3 90 -8  1024  -0.6  757  313    -5  0.0     
03 07.11.18 250 (З) 7{11}  4000 м  слаб. снег [диам. отлож. мокр. снега 2 мм]  10/10 300 м 
[Ns]
-3 -4.8 87 -7  1015.1  -2.3  751  306  -6.3    0.2  равномерный
сухой снег
100% 
15 07.11.18 270 (З) 4000 м  слаб. дождь{снег}  10/10 300 м 
[Ns]
+0.4 -1.2 89 -2  1012.1  -0.3  748  301    +0.4  0.4     
21 07.11.18 260 (З) 20000 м    10/5 300 м средняя 
[Frnb|As op]
+0.5 -0.9 90 -2  1010.5  -1.1  747  301           
03 08.11.18 250 (З) 7-11{12}  20000 м  в посл. час снег{морось}  10/10 300 м 
[St]
+0.4 -1.2 89 -3  1006  -2.5  744  299  +0.3    0.0  равномерный
мокрый или
старый снег
100% 
15 08.11.18 320 (СЗ) 8-13{13}  4000 м  снег  10/10 450 м 
[St]
-0.3 -2.2 87 -5  1002  1.6  741  299    +0.8     
21 08.11.18 340 (С) 6-11{13}  20000 м    ясно 
-9.6 -14.9 65 -15  1012.6  4.4  748  314           
03 09.11.18 330 (СЗ) 4{12}  20000 м    ясно 
-16.2 -20.4 70 -21  1021.7  3.9  755  325  -16.2    0.0  равномерный
сухой снег
100% 
09 09.11.18 310 (СЗ) 20000 м    4/4 600 м 
[Cu hum]
-13 -19.1 60 -18  1025.7  1.4  758  322           
21 09.11.18 310 (СЗ) 20000 м    ясно 
-17.6 -20 81 -20  1029.9  0.7  761  329           
03 10.11.18 тихо ()   20000 м    3/0 верхняя 
[Ci fib]
-18.9 -20.8 85 -19  1031.7  0.6  762  331  -19.2      равномерный
сухой снег
100% 
09 10.11.18 290 (З) 20000 м    3/3 600 м 
[Sc]
-13.4 -18.3 67 -16  1031.9  -0.3  763  325           
21 10.11.18 270 (З) 20000 м    10/0 средняя 
[As op]
-13.7 -16.9 77 -18  1030.9  -0.8  762  325           
03 11.11.18 290 (З) 20000 м  {снег}  4/0 верхняя 
[Ci fib]
-14.9 -17.3 82 -17  1032.8  1.5  763  327  -15.2    0.0  равномерный
сухой снег
100% 
09 11.11.18 310 (СЗ) 20000 м  слаб. снег  10/0 средняя 
[As op]
-10.4 -14.1 74 -13  1034.5  0.6  765  322           
15 11.11.18 280 (З) 20000 м  {снег}  4/0 средняя 
[Ac trans]
-12.8 -15.3 82 -13  1036.9  766  325    -10.2  0.3     
03 12.11.18 260 (З) 20000 м    9/0 верхняя 
[Cc]
-12.8 -15.5 80 -17  1034.1  -0.7  764  324  -13.3    0.0  равномерный
сухой снег
100% 
21 12.11.18 280 (З) 20000 м    ясно 
-9.7 -13.1 76 -13  1029.1  0.1  761  319           
03 13.11.18 280 (З) 4000 м  слаб. снег  10/0 средняя 
[Ac As]
-7.4 -10.7 77 -9  1030.4  1.1  762  317  -11.9    0.0  равномерный
сухой снег
100% 
15 13.11.18 240 (ЮЗ) 20000 м    10/10 840 м 
[Sc]
-5.9 -8 85 -7  1034.3  0.4  765  316    -3.7  0.0     
21 13.11.18 250 (З) 20000 м    10/10 800 м 
[Sc]
-4.4 -7.7 78 -8  1033.3  -0.6  764  314           
03 14.11.18 240 (ЮЗ) 20000 м    10/0 средняя, верхняя 
[Ac lent|Ci fib]
-7.3 -11.1 74 -11  1032.2  -0.5  763  317  -7.3      равномерный
сухой снег
100% 
09 14.11.18 250 (З) 20000 м    10/0 верхняя 
[Ci fib]
-5.5 -11.5 63 -9  1030.8  -1  762  314           
21 14.11.18 260 (З) 5{11}  20000 м    10/0 средняя 
[Ac As]
-5.9 -12.8 58 -10  1028.8  -0.4  761  314           
03 15.11.18 270 (З) 20000 м    9/0 средняя 
[Ac trans]
-6.9 -13 62 -10  1030.3  1.1  762  316  -9.5      равномерный
сухой снег
100% 
Время (UTC), дата Ветер
(°,м/с) 
Видим.   Явления Облачность Т
(°С)
Тd
(°С)
f(%) Тe
(°С)
Pmin
(гПа)
dP
(гПа)
Po
(мм)
O2
(г/м3)
Тmin Tmax R s Состояние
почвы

Для получения пояснительной информации подведите курсор к названию столбца.

ПОГОДА в Щербакуле - архив

Всё, что Вы хотите узнать о погоде в Щербакуле - удобно и подробно!

Выберите нужную дату (начиная с 1 января 2015* года) и нажмите кнопку "Найти".
Будут отображены архивные сводки погоды по пункту Щербакуль, начиная с указанной даты.


Отображать данные в формате CSV (для использования в таблицах Excel)


Внимание! Наш архив погоды предназначен исключительно для личного некоммерческого использования в познавательных целях. Если Вам необходимы официальные справки о состоянии погоды (для производственных, юридических, коммерческих и т.п. целей), обращайтесь в органы Росгидромета.

*Примечание: данная дата относится к архиву по метеостанциям СССР (Россия, СНГ, Балтия).
Архив по метеостанциям Зарубежной Европы и Азии (кроме Китая) хранится 10 дней, по другим регионам земного шара (Китай, Африка, Америка, Австралия, Океания) - 1 день.

Щербакуль - район местоположения метеостанции


Название, широта, долгота, высота метеостанции:
Щербакуль 54.6°ш. 72.4°д. 115 м над ур. моря [Российская Федерация]

Дополнительная информация

В oтличие oт бoльшинства пoгoдных сайтoв мы публикуем пoдрoбную метеoинфoрмацию в детальнoм прoфессиoнальнoм фoрмате.

Характеристики температуры и влажнoсти вoздуха измеряются на высoте 2 м в тени вдали oт зданий и деревьев.
Скoрoсть ветра измеряется на высoте 10 м (на урoвне рoста челoвека скoрoсть ветра ниже в 1.5-2 раза). Если метеoстанция нахoдится в гoрoде или в лесу, тo скoрoсть ветра занижена на 2-4 м/с пo сравнению с oткрытым местoм. Скoрoсть ветра над акватoриями крупных рек и oзёр, а также на вершинах хoлмoв на 2-5 м/с выше, чем в oбычных услoвиях.
Атмoсфернoе давление в разных тoчках местнoсти мoжет значительнo oтличаться oт давления на метеoстанции, в зависимoсти oт услoвий рельефа (при пoдъёме на 10 м давление пoнижается примернo на 1 мм рт.ст.).